Location: Dunedin
(45.8670°S, 170.5000°E)
Time: 10:03:01
(UTC+13:00)

BREEZE-M DEB (TANK) - Pass Details

Date: 24 January 2019
Orbit: 278 x 14014 km, 46.1° (Epoch: 16 February)

Event Time Altitude Azimuth Distance (km) Brightness Sun altitude
Rises 22:18:39 0° 299° (WNW) 4,465 7.2 -9.2°
Reaches altitude 10° 22:22:58 10° 304° (NW) 2,382 5.8 -9.8°
Maximum altitude 22:27:12 43° 16° (NNE) 595 2.1 -10.4°
Enters shadow 22:29:09 12° 89° (E) 1,116 3.5 -10.6°
